This is the latest recevied weather packets stored in our database for station/object KE8WMS. If no packets are shown the sender has not sent any weather packets the latest 10 day(s).
| Time | Temp. | Humidity | Pressure | Rain* | Wind** | Luminosity | Snow |
|---|---|---|---|---|---|---|---|
| 1788029122 | 28.33° C | 49% | 1017.2 hPa | 0 mm | - | 678 W/m² | - |
| 1788028816 | 27.78° C | 49% | 1017.3 hPa | 0 mm | - | 660 W/m² | - |
| 1788028516 | 27.78° C | 48% | 1017.7 hPa | 0 mm | - | 655 W/m² | - |
| 1788028212 | 27.78° C | 51% | 1017.5 hPa | 0 mm | - | 669 W/m² | - |
| 1788027907 | 27.22° C | 50% | 1017.3 hPa | 0 mm | - | 549 W/m² | - |
| 1788027601 | 27.78° C | 48% | 1017.7 hPa | 0 mm | - | 676 W/m² | - |
| 1788027296 | 27.78° C | 51% | 1017.8 hPa | 0 mm | - | 685 W/m² | - |
| 1788026995 | 28.89° C | 46% | 1017.8 hPa | 0 mm | - | 669 W/m² | - |
| 1788026690 | 27.78° C | 50% | 1017.9 hPa | 0 mm | - | 690 W/m² | - |
| 1788026385 | 27.78° C | 51% | 1017.8 hPa | 0 mm | - | 685 W/m² | - |
| 1788026081 | 28.89° C | 47% | 1017.9 hPa | 0 mm | - | 704 W/m² | - |
| 1788025780 | 28.33° C | 48% | 1018.1 hPa | 0 mm | - | 694 W/m² | - |
| 1788025479 | 28.33° C | 49% | 1018.2 hPa | 0 mm | - | 701 W/m² | - |
| 1788025175 | 27.78° C | 47% | 1018.2 hPa | 0 mm | - | 694 W/m² | - |
| 1788024875 | 27.22° C | 46% | 1018.2 hPa | 0 mm | - | 711 W/m² | - |
| 1788024571 | 27.78° C | 47% | 1018.4 hPa | 0 mm | - | 686 W/m² | - |
| 1788024270 | 27.78° C | 49% | 1018.6 hPa | 0 mm | - | 663 W/m² | - |
| 1788023966 | 27.78° C | 50% | 1018.4 hPa | 0 mm | - | 652 W/m² | - |
| 1788023661 | 27.22° C | 46% | 1018.7 hPa | 0 mm | - | 657 W/m² | - |
| 1788023358 | 27.78° C | 47% | 1018.7 hPa | 0 mm | - | 687 W/m² | - |
| 1788023057 | 27.78° C | 50% | 1018.8 hPa | 0 mm | - | 707 W/m² | - |
| 1788022755 | 27.78° C | 51% | 1018.8 hPa | 0 mm | - | 693 W/m² | - |
| 1788022454 | 27.78° C | 50% | 1018.9 hPa | 0 mm | - | 698 W/m² | - |
| 1788022149 | 27.78° C | 51% | 1019 hPa | 0 mm | - | 694 W/m² | - |
| 1788021848 | 27.78° C | 49% | 1019.1 hPa | 0 mm | - | 692 W/m² | - |
* Rain latest hour (hover to see other rain measurements)
** Current wind speed in m/s (hover to see current wind gust speed)